{"data":{"norad_id":53654,"intl_designator":"2022-105G","name":"STARLINK-4420","alt_names":[],"object_type":"PAYLOAD","status":"ACTIVE","operator":null,"country":"US","launch_date":"2022-08-31","launch_site_code":"AFWTR","launch_vehicle":null,"mission":null,"orbit_class":"UNKNOWN","rcs_meters":null,"size_class":null,"mass_kg":null,"dimensions":null,"purposes":["comms"],"wikipedia_slug":null,"has_3d_model":false,"image_url":null,"decayed_at":null,"tle_current":{"epoch":"2026-05-25T02:23:01.116672Z","epoch_age_seconds":63522,"freshness":"FRESH","line1":"1 53654U 22105G   26145.09931848 -.00002890  00000+0 -19621-3 0  9995","line2":"2 53654  97.4516  26.1173 0001426  54.1151 306.0208 15.05670229204795","mean_motion":15.05670229,"eccentricity":0.0001426,"inclination_deg":97.4516,"raan_deg":26.1173,"arg_perigee_deg":54.1151,"mean_anomaly_deg":306.0208,"bstar":-0.00019621,"rev_number":20479,"period_min":95.638471975127,"perigee_km":548.46123050339,"apogee_km":550.43697806033,"semimajor_km":6927.5861042819,"source":"CELESTRAK","updated_at":"2026-05-25T13:38:17.485489Z"}}}